Lorton, VA

7:11 PM EST on February 19, 2017 (GMT -0500)
Davison Army Air Field

Weather History for KDAA - November, 2013

Change the Weather History Date:

Friday, November 22, 2013

  Actual Average Record
Temperature  
Mean Temperature 53 °F -  
Max Temperature 64 °F 54 °F 76 °F (2007)
Min Temperature 42 °F 34 °F 16 °F (2014)
Degree Days  
Heating Degree Days 12    
Growing Degree Days 3 (Base 50)    
Moisture  
Dew Point 49 °F    
Average Humidity 83    
Maximum Humidity 100    
Minimum Humidity 60    
Precipitation  
Precipitation 0.00 in - - ()
Sea Level Pressure  
Sea Level Pressure 30.16 in    
Wind  
Wind Speed 2 mph (SSE)    
Max Wind Speed 9 mph    
Max Gust Speed -    
Visibility 10 miles    
Events Rain    
Averages and records for this station are not official NWS values.
T = Trace of Precipitation, MM = Missing Value Source: NWS Daily Summary

Daily Weather History Graph

Daily Weather History Graph

Search for Another Location

Airport or City:

Trip Planner

Search our weather history database for the weather conditions in past years. The results will help you decide how hot, cold, wet, or windy it might be!

Date:

Astronomy

Nov. 22, 2013 Rise Set
Actual Time 6:58 AM EST 4:50 PM EST
Civil Twilight 6:29 AM EST 5:19 PM EST
Nautical Twilight 5:57 AM EST 5:52 PM EST
Astronomical Twilight 5:25 AM EST 6:23 PM EST
Moon 9:20 PM EST (11/22) 10:41 AM EST (11/22)
Length of Visible Light 10h 49m
Length of Day
9h 51m
Waning Gibbous, 78% of the Moon is Illuminated
Nov 22
Waning Gibbous
Nov 25
Last Quarter
Dec 2
New
Dec 9
First Quarter
Dec 17
Full

Hourly Weather History & Observations

Time (EST) Temp. Windchill Dew Point Humidity Pressure Visibility Wind Dir Wind Speed Gust Speed Precip Events Conditions
12:58 AM 42.3 °F - 39.4 °F 90% 30.39 in 10.0 mi ESE 1.2 mph - N/A   Overcast
1:58 AM 42.1 °F - 39.4 °F 90% 30.37 in 10.0 mi Calm Calm - N/A   Mostly Cloudy
2:58 AM 43.3 °F - 40.8 °F 91% 30.34 in 10.0 mi Calm Calm - N/A   Overcast
3:58 AM 43.9 °F 41.3 °F 40.8 °F 89% 30.31 in 10.0 mi SE 4.6 mph - N/A   Mostly Cloudy
4:58 AM 43.7 °F - 41.2 °F 91% 30.30 in 10.0 mi SE 1.2 mph - N/A   Overcast
5:58 AM 45.3 °F - 40.8 °F 84% 30.29 in 10.0 mi Calm Calm - N/A   Overcast
6:58 AM 47.3 °F - 41.2 °F 79% 30.28 in 10.0 mi East 1.2 mph - N/A   Mostly Cloudy
7:56 AM 48.2 °F - 42.8 °F 82% 30.25 in 10.0 mi South 4.6 mph - N/A Rain Light Rain
7:58 AM 48.9 °F - 42.3 °F 78% 30.26 in 10.0 mi South 4.6 mph - N/A Rain Light Rain
8:06 AM 48.2 °F - 42.8 °F 82% 30.25 in 10.0 mi Variable 2.3 mph - N/A   Partly Cloudy
8:58 AM 51.4 °F - 43.7 °F 75% 30.25 in 10.0 mi Variable 5.8 mph - 0.00 in   Overcast
9:58 AM 53.6 °F - 44.8 °F 72% 30.24 in 10.0 mi Calm Calm - N/A   Mostly Cloudy
10:58 AM 58.5 °F - 47.3 °F 66% 30.20 in 10.0 mi Variable 3.5 mph - N/A   Mostly Cloudy
11:58 AM 61.0 °F - 49.8 °F 67% 30.17 in 10.0 mi Variable 4.6 mph - N/A   Scattered Clouds
12:58 PM 64.4 °F - 50.2 °F 60% 30.14 in 10.0 mi South 5.8 mph - N/A   Scattered Clouds
1:58 PM 62.4 °F - 50.2 °F 64% 30.12 in 10.0 mi Variable 2.3 mph - N/A   Overcast
2:58 PM 62.4 °F - 51.3 °F 67% 30.09 in 10.0 mi SSE 2.3 mph - N/A   Overcast
3:58 PM 61.7 °F - 51.3 °F 69% 30.08 in 10.0 mi SE 2.3 mph - N/A   Overcast
4:07 PM 60.8 °F - 51.8 °F 72% 30.06 in 10.0 mi SSE 2.3 mph - N/A Rain Light Rain
4:33 PM 59.0 °F - 55.4 °F 88% 30.05 in 10.0 mi SSE 3.5 mph - N/A   Mostly Cloudy
4:58 PM 57.0 °F - 56.1 °F 97% 30.05 in 10.0 mi ESE 1.2 mph - 0.00 in   Mostly Cloudy
5:16 PM 57.2 °F - 57.2 °F 100% 30.04 in 10.0 mi Calm Calm - N/A Rain Light Rain
5:26 PM 57.2 °F - 57.2 °F 100% 30.04 in 10.0 mi Calm Calm - N/A   Overcast
5:58 PM 56.5 °F - 56.1 °F 99% 30.04 in 10.0 mi Calm Calm - 0.00 in   Overcast
6:58 PM 56.1 °F - 55.8 °F 99% 30.03 in 10.0 mi NW 1.2 mph - N/A   Overcast
7:58 PM 56.1 °F - 55.8 °F 99% 30.02 in 10.0 mi West 1.2 mph - N/A   Overcast
8:58 PM 55.9 °F - 55.8 °F 99% 30.03 in 10.0 mi Calm Calm - N/A   Overcast
9:58 PM 55.0 °F - 54.9 °F 99% 30.04 in 10.0 mi SW 1.2 mph - N/A   Overcast
10:58 PM 60.1 °F - 51.8 °F 74% 30.04 in 10.0 mi WNW 9.2 mph - N/A   Overcast
11:58 PM 60.3 °F - 50.4 °F 70% 30.04 in 10.0 mi NW 8.1 mph - N/A   Overcast